CW6666 Weather Reports


Display with metric or nautical units.
time (UTC)temp
F
wind
direction
speed
MPH
gust
MPH
rain 1hr
in
rain 24hr
in
rain mn
in
humidity
%
barometer
mb
20140730231336 77 167 0.0 0.0 0.18 3.85 0.56 94 1009.7
20140730230928 77 167 0.0 0.0 0.09 3.76 0.47 94 1009.7
20140730230354 77 167 0.0 0.0 0.01 3.68 0.39 94 1009.7
20140730225404 77 167 0.0 0.0 0.11 3.67 0.38 94 1009.3
20140730224839 77 167 0.0 0.0 0.11 3.67 0.38 94 1009.3
20140730224409 77 167 0.0 0.0 0.11 3.67 0.38 94 1009.0
20140730223828 77 167 0.0 0.0 0.11 3.67 0.38 94 1009.0
20140730223403 77 167 0.0 0.0 0.11 3.67 0.38 94 1009.0
20140730222837 76 167 0.0 0.0 0.12 3.67 0.38 94 1009.0
20140730222417 76 167 0.0 0.0 0.13 4.22 0.38 94 1009.0
20140730221844 76 167 0.0 0.0 0.14 4.22 0.38 94 1009.0
20140730221417 77 167 0.0 0.0 0.15 4.22 0.38 94 1008.9
20140730220855 77 167 0.0 0.0 0.15 4.22 0.38 93 1008.9
20140730220424 77 167 0.0 5.0 0.15 4.22 0.38 93 1008.9
20140730215854 77 167 1.0 12.0 0.15 4.21 0.37 93 1008.4
20140730215424 78 202 4.0 15.0 0.05 4.11 0.27 93 1008.4
20140730214857 78 102 11.0 15.0 0.05 4.11 0.27 94 1008.4
20140730213912 78 94 8.0 11.0 0.05 4.11 0.27 94 1008.5
20140730213352 78 90 4.0 11.0 0.05 4.11 0.27 94 1008.5
20140730212834 78 114 5.0 6.0 0.05 4.11 0.27 94 1008.6
20140730212401 78 103 4.0 5.0 0.03 4.38 0.25 94 1008.6
20140730211904 78 131 1.0 4.0 0.02 4.37 0.24 94 1008.6
20140730211347 78 144 1.0 2.0 0.01 4.36 0.23 94 1008.5
20140730210831 77 175 0.0 0.0 0.01 4.36 0.23 94 1008.5
20140730210411 77 175 0.0 0.0 0.01 4.36 0.23 94 1008.5
20140730205836 77 175 0.0 0.0 0.00 4.35 0.22 94 1008.2
20140730204409 77 175 0.0 0.0 0.00 4.35 0.22 94 1007.9
20140730203858 77 175 0.0 0.0 0.01 4.35 0.22 94 1007.9
20140730202915 77 176 0.0 0.0 0.01 4.35 0.22 94 1007.6
20140730202326 77 176 0.0 0.0 0.01 4.45 0.22 94 1007.6
20140730201925 77 176 0.0 0.0 0.07 4.45 0.22 94 1007.6
20140730201347 77 176 0.0 0.0 0.08 4.45 0.22 94 1007.5
20140730200404 76 182 0.0 0.0 0.08 4.45 0.22 94 1007.5
20140730195835 76 182 0.0 0.0 0.08 4.45 0.22 94 1007.4
20140730195411 76 182 0.0 0.0 0.09 4.45 0.22 94 1007.4
20140730194841 76 182 0.0 0.0 0.09 4.45 0.22 94 1007.4
20140730194417 77 182 0.0 0.0 0.09 4.45 0.22 94 1007.3
20140730193910 77 182 0.0 0.0 0.08 4.44 0.21 93 1007.3
20140730193325 77 182 0.0 0.0 0.08 4.44 0.21 93 1007.3
20140730192828 77 182 0.0 0.0 0.08 4.44 0.21 93 1006.9
20140730192411 77 182 0.0 0.0 0.08 4.45 0.21 93 1006.9
20140730191845 77 182 0.0 0.0 0.02 4.39 0.15 93 1006.9
20140730190917 77 182 0.0 0.0 0.01 4.38 0.14 93 1006.7
20140730190345 77 196 0.0 4.0 0.01 4.38 0.14 93 1006.7
20140730185923 77 197 2.0 6.0 0.01 4.38 0.14 93 1006.5
20140730185336 77 197 3.0 6.0 0.00 4.37 0.13 93 1006.5
20140730184355 76 222 0.0 1.0 0.00 4.37 0.13 93 1006.2
20140730183837 76 222 0.0 0.0 0.01 4.37 0.13 93 1006.2
20140730183416 76 222 0.0 0.0 0.03 4.37 0.13 93 1006.2
20140730182847 76 222 0.0 1.0 0.05 4.37 0.13 93 1006.3
20140730182426 76 222 0.0 1.0 0.07 4.37 0.13 93 1006.3
20140730181915 76 222 0.0 1.0 0.08 4.37 0.13 93 1006.3
20140730181332 76 228 0.0 0.0 0.08 4.37 0.13 93 1006.1
20140730180921 76 195 0.0 0.0 0.08 4.37 0.13 93 1006.1
20140730180359 76 195 0.0 0.0 0.08 4.37 0.13 93 1006.1
20140730175830 76 187 0.0 0.0 0.10 4.37 0.13 92 1006.1
20140730175410 76 217 0.0 4.0 0.11 4.37 0.13 92 1006.1
20140730174845 76 218 0.0 7.0 0.11 4.37 0.13 92 1006.1
20140730173403 77 198 0.0 13.0 0.08 4.34 0.10 92 1006.4
20140730172836 78 194 0.0 13.0 0.06 4.32 0.08 92 1005.9
20140730172401 78 227 2.0 4.0 0.04 4.30 0.06 93 1005.9
20140730171837 78 210 0.0 0.0 0.03 4.29 0.05 93 1005.9
20140730171416 78 210 0.0 2.0 0.03 4.29 0.05 93 1005.9
20140730170911 78 204 1.0 2.0 0.03 4.29 0.05 93 1005.9
20140730170338 78 171 0.0 0.0 0.03 4.29 0.05 93 1005.9
20140730165357 78 200 0.0 0.0 0.00 4.26 0.02 93 1005.6
20140730164834 78 199 0.0 0.0 0.00 4.26 0.02 93 1005.6
20140730162910 78 128 0.0 0.0 0.01 4.26 0.02 93 1005.8
20140730162342 78 124 0.0 0.0 0.01 5.15 0.02 93 1005.8
20140730161832 78 123 0.0 0.0 0.01 5.15 0.02 93 1005.8
20140730161409 78 140 0.0 0.0 0.01 5.15 0.02 93 1006.0
20140730160900 78 161 0.0 0.0 0.01 5.15 0.02 93 1006.0
20140730155830 78 161 0.0 0.0 0.01 5.15 0.02 93 1005.8
20140730155340 78 161 0.0 0.0 0.01 5.15 0.02 93 1005.8
20140730154828 78 159 0.0 0.0 0.01 5.15 0.02 93 1005.8
20140730154333 78 159 0.0 0.0 0.01 5.15 0.02 92 1005.9
20140730153840 78 161 0.0 0.0 0.01 5.15 0.02 93 1005.9
20140730153329 78 159 0.0 0.0 0.02 5.15 0.02 93 1005.9
20140730152838 78 159 0.0 0.0 0.01 5.14 0.01 93 1006.0
20140730152330 78 159 0.0 3.0 0.01 5.65 0.01 93 1006.0
20140730151839 78 143 0.0 3.0 0.01 5.65 0.01 93 1006.0
20140730151347 78 234 0.0 0.0 0.01 5.65 0.01 92 1006.0
20140730150832 78 234 0.0 0.0 0.01 5.65 0.01 92 1006.0
20140730150330 77 234 0.0 0.0 0.01 5.65 0.01 92 1006.0
20140730145833 78 234 0.0 0.0 0.01 5.65 0.01 92 1006.4
20140730145345 78 234 0.0 0.0 0.01 5.65 0.01 91 1006.4
20140730144831 78 234 0.0 0.0 0.01 5.65 0.01 91 1006.4
20140730144344 78 234 0.0 0.0 0.01 5.65 0.01 91 1006.3
20140730143832 78 236 0.0 0.0 0.01 5.65 0.01 91 1006.3
20140730143344 78 236 0.0 2.0 0.01 5.65 0.01 91 1006.3
20140730142828 78 235 0.0 2.0 0.00 5.64 0.00 90 1006.3
20140730142341 78 171 0.0 3.0 0.00 5.88 0.00 90 1006.3
20140730141827 78 169 0.0 7.0 0.00 5.88 0.00 90 1006.3
20140730141338 78 186 0.0 7.0 0.00 5.88 0.00 91 1006.4
20140730140847 78 232 2.0 10.0 0.00 5.88 0.00 91 1006.4
20140730140335 78 209 0.0 5.0 0.00 5.88 0.00 91 1006.4
20140730135359 78 188 2.0 6.0 0.00 5.88 5.78 91 1006.4
20140730134848 78 209 0.0 2.0 0.00 5.88 5.78 91 1006.4
20140730133406 78 201 1.0 5.0 0.00 5.88 5.78 91 1006.2
20140730132831 78 220 4.0 5.0 0.00 5.88 5.78 91 1006.3
20140730131902 78 224 3.0 5.0 0.00 5.93 5.78 91 1006.3
20140730131418 78 239 0.0 5.0 0.00 5.93 5.78 91 1006.2
20140730130845 78 223 0.0 3.0 0.00 5.93 5.78 90 1006.2
20140730125915 78 241 4.0 9.0 0.00 5.93 5.78 91 1005.9
20140730125351 78 184 1.0 9.0 0.01 5.93 5.78 91 1005.9
20140730124836 78 174 7.0 11.0 0.01 5.93 5.78 91 1005.9
20140730124416 78 148 0.0 11.0 0.01 5.93 5.78 92 1005.9
20140730123841 78 204 1.0 5.0 0.01 5.93 5.78 91 1005.9
20140730122901 78 161 0.0 8.0 0.01 5.93 5.78 91 1005.6
20140730122341 78 197 6.0 8.0 0.02 5.99 5.78 92 1005.6
20140730121830 78 227 1.0 4.0 0.02 5.99 5.78 91 1005.6
20140730121412 78 242 0.0 12.0 0.02 5.99 5.78 91 1005.8
20140730120924 78 248 0.0 12.0 0.02 5.99 5.78 91 1005.8
20140730115857 79 223 13.0 17.0 0.02 5.99 5.78 91 1005.8
20140730115338 79 190 6.0 7.0 0.01 5.98 5.77 91 1005.8
20140730114830 79 191 4.0 6.0 0.01 5.98 5.77 91 1005.8
20140730114400 79 147 2.0 5.0 0.01 5.98 5.77 91 1005.4
20140730113833 78 154 1.0 5.0 0.01 5.98 5.77 91 1005.4
20140730113413 78 122 0.0 2.0 0.01 5.98 5.77 91 1005.4
20140730112854 78 181 1.0 2.0 0.01 5.98 5.77 91 1004.8
20140730112333 78 196 0.0 1.0 0.02 6.03 5.77 91 1004.8
20140730111351 78 178 1.0 11.0 0.01 6.02 5.76 91 1004.7
20140730110843 78 225 3.0 11.0 0.02 6.02 5.76 91 1004.7
20140730110421 78 175 6.0 7.0 0.02 6.02 5.76 91 1004.7
20140730105900 78 214 0.0 12.0 0.02 6.02 5.76 91 1004.8
20140730105422 78 198 0.0 12.0 0.03 6.02 5.76 91 1004.8
20140730104902 78 190 1.0 9.0 0.03 6.02 5.76 91 1004.8
20140730104327 78 186 0.0 11.0 0.03 6.02 5.76 91 1004.9
20140730103914 78 195 1.0 11.0 0.03 6.02 5.76 91 1004.9
20140730103343 78 189 0.0 7.0 0.03 6.02 5.76 91 1004.9
20140730102827 78 196 1.0 13.0 0.04 6.02 5.76 91 1004.3
20140730102409 78 200 5.0 13.0 0.03 6.15 5.75 91 1004.3
20140730101838 78 201 0.0 5.0 0.04 6.15 5.75 91 1004.3
20140730101419 78 187 0.0 10.0 0.04 6.15 5.75 91 1003.9
20140730100915 78 162 4.0 10.0 0.03 6.14 5.74 91 1003.9
20140730100350 78 148 5.0 6.0 0.03 6.14 5.74 91 1003.9
20140730095835 78 178 4.0 8.0 0.03 6.14 5.74 91 1002.9
20140730095417 78 226 6.0 16.0 0.03 6.13 5.73 91 1002.9
20140730094907 78 191 1.0 16.0 0.03 6.13 5.73 91 1002.9
20140730094346 78 304 0.0 13.0 0.04 6.13 5.73 91 1002.4
20140730093838 78 239 8.0 13.0 0.04 6.13 5.73 91 1002.4
20140730092920 78 245 7.0 20.0 0.04 6.13 5.73 91 1002.9
20140730092342 78 194 5.0 20.0 0.04 6.15 5.72 92 1002.9
20140730091832 78 205 4.0 6.0 0.04 6.14 5.71 92 1002.9
20140730091404 78 221 2.0 10.0 0.04 6.14 5.71 91 1003.2
20140730090842 78 213 3.0 12.0 0.04 6.14 5.71 92 1003.2
20140730085914 78 201 2.0 7.0 0.05 6.14 5.71 92 1003.2
20140730085356 78 239 2.0 14.0 0.04 6.13 5.70 92 1003.2
20140730084841 78 239 0.0 14.0 0.04 6.13 5.70 92 1003.2
20140730084404 78 303 3.0 10.0 0.05 6.13 5.70 92 1002.8
20140730083841 77 169 3.0 13.0 0.04 6.12 5.69 92 1002.8
20140730082920 77 189 6.0 11.0 0.05 6.12 5.69 92 1002.2
20140730082347 77 157 8.0 9.0 0.04 6.11 5.68 92 1002.2
20140730081833 77 197 3.0 9.0 0.04 6.11 5.68 91 1002.2
20140730080412 77 199 0.0 11.0 0.05 6.10 5.67 92 1002.2
20140730075400 77 234 7.0 17.0 0.05 6.09 5.66 92 1001.1
20140730074828 77 225 0.0 17.0 0.05 6.09 5.66 92 1001.1
20140730074357 77 238 7.0 22.0 0.05 6.08 5.65 92 1001.3
20140730073836 77 236 8.0 22.0 0.05 6.08 5.65 93 1001.3
20140730072909 76 286 2.0 11.0 0.06 6.07 5.64 93 1001.2
20140730072333 76 209 3.0 13.0 0.08 6.07 5.64 93 1001.2
20140730071826 76 236 4.0 13.0 0.08 6.07 5.64 93 1001.2
20140730071400 76 222 2.0 13.0 0.08 6.06 5.63 93 1001.3
20140730070834 76 209 0.0 5.0 0.09 6.06 5.63 94 1001.3
20140730070400 76 247 0.0 10.0 0.10 6.05 5.62 93 1001.3
20140730065838 75 238 7.0 11.0 0.10 6.05 5.62 93 1000.9
20140730064903 75 216 3.0 12.0 0.12 6.04 5.61 93 1000.9
20140730064349 76 227 6.0 9.0 0.13 6.04 5.61 94 1001.7
20140730063840 76 196 2.0 9.0 0.15 6.03 5.60 94 1001.7
20140730063336 75 203 5.0 9.0 0.18 6.02 5.59 93 1001.7
20140730062828 76 223 1.0 7.0 0.20 6.01 5.58 93 1002.2
20140730062349 76 208 1.0 7.0 0.21 5.99 5.56 93 1002.2
20140730061834 76 199 1.0 12.0 0.24 5.99 5.56 94 1002.2
20140730060910 76 212 3.0 13.0 0.30 5.97 5.54 94 1002.7
20140730060333 76 234 0.0 13.0 0.32 5.95 5.52 94 1002.7
20140730055405 75 207 9.0 18.0 0.42 5.94 5.51 94 1003.2
20140730054845 75 256 5.0 14.0 0.41 5.92 5.49 93 1003.2
20140730053909 75 271 3.0 13.0 0.39 5.89 5.46 94 1003.0
20140730053335 75 217 7.0 13.0 0.36 5.85 5.42 93 1003.0
20140730052826 76 194 2.0 14.0 0.32 5.81 5.38 93 1003.1
20140730052408 76 207 7.0 14.0 0.29 5.78 5.35 94 1003.1
20140730051856 76 222 9.0 15.0 0.28 5.76 5.33 94 1003.1
20140730051421 76 179 5.0 16.0 0.26 5.73 5.30 94 1003.3
20140730050847 76 229 10.0 16.0 0.28 5.69 5.26 93 1003.3
20140730050409 76 190 6.0 15.0 0.24 5.64 5.21 93 1003.3
20140730045841 76 220 1.0 21.0 0.18 5.57 5.14 93 1003.2
20140730045417 77 224 9.0 21.0 0.20 5.53 5.10 93 1003.2
20140730044838 76 201 6.0 15.0 0.21 5.51 5.08 93 1003.2
20140730044417 77 200 11.0 18.0 0.25 5.50 5.07 93 1003.1
20140730043909 77 187 1.0 18.0 0.30 5.50 5.07 93 1003.1
20140730043420 76 151 8.0 24.0 0.31 5.50 5.07 94 1003.1
20140730041901 76 263 7.0 17.0 0.47 5.49 5.05 94 1003.2
20140730041345 76 189 3.0 9.0 0.47 5.48 5.04 94 1002.8
20140730040848 76 224 2.0 16.0 0.46 5.42 4.98 94 1002.8
20140730040420 76 215 4.0 16.0 0.50 5.42 4.98 94 1002.8
20140730035837 76 192 11.0 12.0 0.51 5.40 4.96 94 1003.3
20140730034908 76 192 6.0 12.0 0.43 5.32 4.88 94 1003.3
20140730034425 76 182 3.0 12.0 0.40 5.29 4.85 94 1003.3
20140730033845 76 237 1.0 12.0 0.34 5.23 4.79 93 1003.3
20140730033338 76 213 1.0 11.0 0.31 5.20 4.76 93 1003.3
20140730032831 76 192 4.0 13.0 0.25 5.14 4.70 93 1003.1
20140730032412 76 232 5.0 13.0 0.18 5.07 4.63 93 1003.1
20140730031833 76 208 4.0 13.0 0.14 5.02 4.58 93 1003.1
20140730031405 76 234 6.0 13.0 0.19 5.02 4.58 93 1003.3
20140730030851 77 240 6.0 11.0 0.19 4.98 4.54 93 1003.3
20140730025425 77 205 3.0 12.0 0.15 4.89 4.45 93 1003.2
20140730024411 77 275 1.0 12.0 0.19 4.89 4.45 93 1002.8
20140730023907 77 242 7.0 16.0 0.19 4.89 4.45 93 1002.8
20140730023339 77 198 8.0 23.0 0.20 4.89 4.45 93 1002.8
20140730022844 77 255 14.0 23.0 0.20 4.89 4.45 93 1003.3
20140730021914 77 238 9.0 21.0 0.25 4.88 4.44 93 1003.3
20140730021330 77 290 4.0 9.0 0.25 4.85 4.41 93 1003.3
20140730020849 77 42 4.0 9.0 0.26 4.80 4.36 93 1003.3
20140730015909 77 224 6.0 17.0 0.28 4.76 4.32 93 1003.3
20140730015327 77 254 7.0 12.0 0.33 4.74 4.30 93 1003.3
20140730014907 77 180 5.0 11.0 0.36 4.71 4.27 93 1003.3
20140730014331 77 275 6.0 12.0 0.40 4.70 4.26 93 1003.6
20140730013916 77 223 3.0 12.0 0.47 4.70 4.26 93 1003.6
20140730013352 77 248 8.0 12.0 0.56 4.69 4.25 94 1003.6
20140730012826 77 270 8.0 15.0 0.68 4.69 4.25 94 1003.5
20140730012416 77 202 7.0 15.0 0.75 4.73 4.25 94 1003.5
20140730011848 77 277 7.0 17.0 0.76 4.69 4.21 94 1003.5
20140730011422 77 270 5.0 17.0 0.80 4.65 4.17 94 1003.1
20140730010855 77 300 2.0 18.0 0.85 4.59 4.11 94 1003.1
20140730010335 77 219 1.0 18.0 0.89 4.57 4.09 94 1003.1
20140730005356 77 258 5.0 13.0 0.87 4.47 3.99 94 1003.8
20140730004838 76 219 6.0 16.0 0.83 4.40 3.92 94 1003.8
20140730003346 76 293 8.0 18.0 0.93 4.19 3.71 94 1003.6
20140730002843 76 223 9.0 17.0 0.90 4.07 3.59 94 1004.4
20140730002412 76 243 4.0 23.0 0.86 4.03 3.53 94 1004.4
20140730001903 76 298 4.0 23.0 0.82 3.97 3.47 94 1004.4
20140730001329 76 295 7.0 15.0 0.72 3.87 3.37 94 1004.0
20140730000905 76 236 7.0 18.0 0.65 3.78 3.28 94 1004.0
20140730000328 76 269 4.0 18.0 0.58 3.70 3.20 94 1004.0
20140729235404 76 190 9.0 14.0 0.54 3.64 3.14 93 1004.0
20140729234409 77 274 11.0 19.0 0.48 3.54 3.04 94 1004.3
20140729233847 77 295 9.0 14.0 0.43 3.47 2.97 94 1004.3
20140729233421 77 296 6.0 14.0 0.30 3.32 2.82 94 1004.3
20140729232857 77 261 3.0 11.0 0.21 3.20 2.70 93 1004.1
20140729232347 77 252 8.0 11.0 0.19 3.17 2.67 93 1004.1
20140729231833 77 266 8.0 13.0 0.19 3.15 2.65 93 1004.1